Glencoe, MN

8:40 PM CST on December 09, 2019 (GMT -0600)
Glencoe Municipal

Weather History for KGYL - October, 2019

Change the Weather History Date:

Friday, October 11, 2019

  Actual Average (WUND) Record (WUND)
Temperature  
Mean Temperature 36 °F -  
Max Temperature 38 °F - - (-1)
Min Temperature 33 °F - - (-1)
Degree Days  
Heating Degree Days 30    
Moisture  
Dew Point 33 °F    
Average Humidity 90    
Maximum Humidity 100    
Minimum Humidity 68    
Precipitation  
Precipitation 0.02 in - - ()
Sea Level Pressure  
Sea Level Pressure 29.77 in    
Wind  
Wind Speed 12 mph (SW)    
Max Wind Speed 20 mph    
Max Gust Speed 29 mph    
Visibility 8 miles    
Events Rain , Snow , Thunderstorm    
Averages and records for this station are not official NWS values.
T = Trace of Precipitation, MM = Missing Value Source: NWS Daily Summary

Daily Weather History Graph

Daily Weather History Graph

Search for Another Location

Airport or City:

Astronomy

Oct. 11, 2019 Rise Set
Actual Time 7:26 AM CDT 6:38 PM CDT
Civil Twilight 6:57 AM CDT 7:08 PM CDT
Nautical Twilight 6:23 AM CDT 7:42 PM CDT
Astronomical Twilight 5:49 AM CDT 8:15 PM CDT
Moon 6:16 PM CDT (10/11) 4:58 AM CDT (10/11)
Length of Visible Light 12h 11m
Length of Day
11h 12m
Waxing Gibbous, 96% of the Moon is Illuminated
Oct 11
Waxing Gibbous
Oct 13
Full
Oct 21
Last Quarter
Oct 27
New
Nov 4
First Quarter

Hourly Weather History & Observations

Time (CDT) Temp. Windchill Dew Point Humidity Pressure Visibility Wind Dir Wind Speed Gust Speed Precip Events Conditions
12:15 AM 37.2 °F 30.0 °F 37.4 °F 100% 29.75 in 10.0 mi West 10.4 mph 19.6 mph 0.01 in Rain , Thunderstorm Light Thunderstorms and Rain
12:19 AM 37.2 °F 29.6 °F 37.4 °F 100% 29.75 in 10.0 mi West 11.5 mph 19.6 mph 0.01 in Rain , Thunderstorm Light Thunderstorms and Rain
12:36 AM 37.4 °F 28.9 °F 37.4 °F 100% 29.75 in 10.0 mi West 13.8 mph 19.6 mph 0.01 in   Overcast
12:55 AM 37.0 °F 28.5 °F 37.4 °F 100% 29.74 in 10.0 mi West 13.8 mph 23.0 mph 0.01 in   Overcast
12:56 AM 37.0 °F 29.3 °F 37.2 °F 100% 29.74 in 10.0 mi West 11.5 mph 23.0 mph 0.01 in   Overcast
1:15 AM 37.0 °F 29.8 °F 37.2 °F 100% 29.76 in 7.0 mi WSW 10.4 mph 16.1 mph N/A   Overcast
1:16 AM 37.0 °F 29.8 °F 37.2 °F 100% 29.76 in 7.0 mi WSW 10.4 mph 16.1 mph N/A   Overcast
1:39 AM 36.9 °F 30.7 °F 37.0 °F 100% 29.75 in 10.0 mi West 8.1 mph - N/A   Overcast
1:56 AM 36.9 °F 30.7 °F 37.2 °F 100% 29.75 in 10.0 mi WSW 8.1 mph - N/A   Overcast
2:15 AM 36.9 °F 29.1 °F 37.0 °F 100% 29.75 in 10.0 mi West 11.5 mph 17.3 mph N/A Thunderstorm Overcast
2:16 AM 36.9 °F 28.7 °F 37.0 °F 100% 29.75 in 10.0 mi West 12.7 mph 17.3 mph N/A Thunderstorm Overcast
2:38 AM 36.5 °F 30.3 °F 36.5 °F 100% 29.75 in 5.0 mi West 8.1 mph 18.4 mph N/A   Overcast
2:55 AM - - - N/A% 29.76 in 10.0 mi WSW 10.4 mph 17.3 mph N/A   Overcast
2:56 AM - - - N/A% 29.75 in 10.0 mi WSW 8.1 mph 17.3 mph N/A   Overcast
3:15 AM 36.0 °F 28.5 °F 36.3 °F 100% 29.76 in 7.0 mi WSW 10.4 mph 18.4 mph N/A   Overcast
3:39 AM 35.6 °F 27.5 °F 35.8 °F 100% 29.73 in 10.0 mi WSW 11.5 mph 17.3 mph N/A   Overcast
3:56 AM 35.8 °F 28.8 °F 36.0 °F 100% 29.74 in 7.0 mi WSW 9.2 mph - N/A   Overcast
4:15 AM 35.6 °F 26.6 °F 35.8 °F 100% 29.78 in 5.0 mi SW 13.8 mph 17.3 mph N/A   Overcast
4:16 AM 35.6 °F 27.1 °F 35.6 °F 100% 29.78 in 4.0 mi WSW 12.7 mph 23.0 mph N/A   Overcast
4:35 AM 35.1 °F 27.4 °F 35.2 °F 100% 29.77 in 10.0 mi WSW 10.4 mph 19.6 mph N/A   Overcast
4:58 AM 34.9 °F 27.1 °F 35.1 °F 100% 29.76 in 10.0 mi WSW 10.4 mph 16.1 mph N/A   Overcast
5:15 AM 34.9 °F 27.1 °F 35.1 °F 100% 29.77 in 10.0 mi WSW 10.4 mph 19.6 mph N/A   Overcast
5:16 AM 34.9 °F 27.1 °F 35.1 °F 100% 29.77 in 10.0 mi WSW 10.4 mph 19.6 mph N/A   Overcast
5:35 AM 35.1 °F 27.4 °F 35.2 °F 100% 29.77 in 10.0 mi SW 10.4 mph 17.3 mph N/A   Overcast
5:56 AM 35.1 °F 26.9 °F 35.2 °F 100% 29.78 in 7.0 mi SW 11.5 mph 17.3 mph N/A   Overcast
6:15 AM 35.1 °F 26.4 °F 35.2 °F 100% 29.78 in 10.0 mi SW 12.7 mph 17.3 mph N/A   Mostly Cloudy
6:16 AM 35.1 °F 27.4 °F 35.2 °F 100% 29.78 in 10.0 mi SW 10.4 mph 17.3 mph N/A   Mostly Cloudy
6:35 AM 35.2 °F 27.1 °F 35.1 °F 99% 29.78 in 10.0 mi WSW 11.5 mph 18.4 mph N/A   Mostly Cloudy
6:36 AM 35.2 °F 26.6 °F 35.1 °F 99% 29.78 in 10.0 mi WSW 12.7 mph 18.4 mph N/A   Mostly Cloudy
6:56 AM 35.1 °F 27.4 °F 34.5 °F 98% 29.78 in 10.0 mi SW 10.4 mph 20.7 mph N/A   Mostly Cloudy
7:15 AM 35.1 °F 26.9 °F 34.3 °F 97% 29.78 in 7.0 mi SW 11.5 mph 17.3 mph N/A   Mostly Cloudy
7:16 AM 35.1 °F 26.9 °F 34.5 °F 98% 29.78 in 7.0 mi SW 11.5 mph 17.3 mph N/A   Mostly Cloudy
7:39 AM 34.2 °F 27.5 °F 34.3 °F 100% 29.77 in 3.0 mi WSW 8.1 mph 17.3 mph N/A Snow Light Snow
7:57 AM - - - N/A% 29.78 in 4.0 mi WSW 9.2 mph 19.6 mph N/A   Unknown
8:15 AM 35.2 °F 26.6 °F 34.5 °F 97% 29.78 in 10.0 mi WSW 12.7 mph 20.7 mph N/A   Overcast
8:16 AM 35.2 °F 27.6 °F 34.5 °F 97% 29.78 in 10.0 mi SW 10.4 mph 20.7 mph N/A   Overcast
8:35 AM 35.6 °F 28.6 °F 34.3 °F 95% 29.78 in 10.0 mi SW 9.2 mph 18.4 mph N/A   Overcast
8:36 AM 35.6 °F 29.2 °F 34.5 °F 96% 29.78 in 10.0 mi SW 8.1 mph 18.4 mph N/A   Overcast
8:58 AM 35.6 °F 27.5 °F 34.3 °F 95% 29.78 in 10.0 mi SW 11.5 mph 23.0 mph N/A   Overcast
9:16 AM 35.6 °F 27.1 °F 34.9 °F 97% 29.78 in 7.0 mi SW 12.7 mph 21.9 mph N/A   Overcast
9:35 AM 35.8 °F 26.1 °F 34.2 °F 94% 29.78 in 10.0 mi SW 16.1 mph 24.2 mph N/A   Overcast
9:36 AM 35.8 °F 26.5 °F 34.0 °F 93% 29.78 in 10.0 mi SW 15.0 mph 24.2 mph N/A   Overcast
9:58 AM 36.3 °F 26.8 °F 32.7 °F 87% 29.79 in 10.0 mi SW 16.1 mph 24.2 mph N/A   Overcast
10:15 AM 36.7 °F 28.9 °F 32.0 °F 83% 29.78 in 10.0 mi SW 11.5 mph 19.6 mph N/A   Overcast
10:16 AM 36.7 °F 28.0 °F 32.0 °F 83% 29.78 in 10.0 mi SW 13.8 mph 19.6 mph N/A   Overcast
10:35 AM 37.0 °F 28.9 °F 30.9 °F 79% 29.79 in 10.0 mi SW 12.7 mph 26.5 mph N/A   Overcast
10:40 AM 37.0 °F 28.5 °F 30.7 °F 78% 29.79 in 10.0 mi SW 13.8 mph 21.9 mph N/A   Overcast
10:56 AM 37.4 °F 30.3 °F 29.8 °F 74% 29.79 in 10.0 mi SW 10.4 mph 25.3 mph N/A   Overcast
11:44 AM 38.1 °F 29.5 °F 28.6 °F 69% 29.78 in 10.0 mi SW 15.0 mph 23.0 mph N/A   Overcast
11:55 AM 37.9 °F 28.9 °F 28.4 °F 69% 29.78 in 10.0 mi SW 16.1 mph 25.3 mph N/A   Overcast
11:56 AM 37.9 °F 30.5 °F 28.6 °F 69% 29.78 in 10.0 mi SW 11.5 mph 25.3 mph N/A   Overcast
12:17 PM 38.5 °F 29.6 °F 28.9 °F 69% 29.78 in 10.0 mi SW 16.1 mph 26.5 mph N/A   Overcast
12:35 PM 38.7 °F 30.5 °F 29.3 °F 69% 29.77 in 10.0 mi SW 13.8 mph 25.3 mph N/A   Overcast
12:55 PM 38.8 °F 30.0 °F 29.1 °F 68% 29.77 in 10.0 mi SW 16.1 mph 25.3 mph N/A   Overcast
2:25 PM 38.7 °F 29.8 °F 30.4 °F 72% 29.76 in 10.0 mi SW 16.1 mph 25.3 mph N/A   Overcast
2:35 PM 38.5 °F 29.9 °F 29.5 °F 70% 29.76 in 10.0 mi WSW 15.0 mph 23.0 mph N/A   Overcast
2:36 PM 38.5 °F 30.7 °F 29.3 °F 70% 29.76 in 10.0 mi WSW 12.7 mph 23.0 mph N/A   Overcast
2:59 PM 38.8 °F 30.0 °F 28.9 °F 68% 29.76 in 10.0 mi SW 16.1 mph 25.3 mph N/A   Overcast
3:16 PM 38.3 °F 30.9 °F 29.3 °F 70% 29.76 in 10.0 mi WSW 11.5 mph 24.2 mph N/A   Overcast
3:35 PM 38.8 °F 31.2 °F 29.8 °F 70% 29.76 in 10.0 mi WSW 12.7 mph 23.0 mph N/A   Overcast
3:55 PM 38.3 °F 29.7 °F 28.4 °F 68% 29.75 in 10.0 mi WSW 15.0 mph 26.5 mph N/A   Overcast
3:56 PM 38.3 °F 30.5 °F 28.6 °F 68% 29.75 in 10.0 mi SW 12.7 mph 26.5 mph N/A   Overcast
4:18 PM 37.9 °F 29.2 °F 29.7 °F 72% 29.76 in 10.0 mi WSW 15.0 mph 24.2 mph N/A   Overcast
4:35 PM 37.8 °F 28.6 °F 29.1 °F 71% 29.76 in 10.0 mi SW 16.1 mph 28.8 mph N/A   Overcast
4:36 PM 37.6 °F 27.7 °F 29.1 °F 72% 29.76 in 10.0 mi SW 18.4 mph 28.8 mph N/A   Overcast
4:55 PM 36.3 °F 27.1 °F 30.9 °F 81% 29.77 in 4.0 mi WSW 15.0 mph 25.3 mph N/A Snow Light Snow
5:18 PM 36.5 °F 26.7 °F 30.7 °F 80% 29.77 in 10.0 mi SW 17.3 mph 27.6 mph 0.01 in   Overcast
5:36 PM 35.6 °F 24.8 °F 30.6 °F 82% 29.77 in 10.0 mi WSW 19.6 mph 27.6 mph 0.01 in Snow Light Snow
5:55 PM 34.2 °F 24.4 °F 31.1 °F 89% 29.78 in 4.0 mi WSW 15.0 mph 28.8 mph 0.01 in Snow Light Snow
5:56 PM 34.2 °F 24.4 °F 31.1 °F 89% 29.78 in 4.0 mi WSW 15.0 mph 28.8 mph 0.01 in Snow Light Snow
6:19 PM 33.8 °F 25.3 °F 30.9 °F 89% 29.78 in 7.0 mi SW 11.5 mph 20.7 mph N/A Snow Light Snow
6:37 PM 33.3 °F 22.8 °F 31.8 °F 94% 29.78 in 2.0 mi WSW 16.1 mph 21.9 mph N/A Snow Light Snow
6:55 PM 33.6 °F 25.0 °F 30.9 °F 90% 29.78 in 5.0 mi SW 11.5 mph 23.0 mph N/A Snow Light Snow
6:56 PM 33.4 °F 24.3 °F 30.9 °F 90% 29.78 in 5.0 mi SW 12.7 mph 23.0 mph N/A Snow Light Snow
7:15 PM 33.6 °F 24.6 °F 31.1 °F 90% 29.78 in 3.0 mi SW 12.7 mph 24.2 mph N/A Snow Light Snow
7:16 PM 33.6 °F 25.0 °F 31.3 °F 91% 29.78 in 3.0 mi SW 11.5 mph 24.2 mph N/A Snow Light Snow
7:38 PM 33.4 °F 24.8 °F 31.6 °F 93% 29.78 in 4.0 mi SW 11.5 mph 24.2 mph N/A Snow Light Snow
7:55 PM 33.1 °F 24.9 °F 31.6 °F 94% 29.78 in 3.0 mi SW 10.4 mph 21.9 mph N/A Snow Light Snow
8:15 PM 33.1 °F 23.4 °F 32.0 °F 96% 29.78 in 5.0 mi SW 13.8 mph 24.2 mph N/A Snow Light Snow
8:16 PM 33.1 °F 23.9 °F 32.0 °F 96% 29.78 in 5.0 mi SW 12.7 mph 24.2 mph N/A Snow Light Snow
8:39 PM 33.4 °F 23.9 °F 31.1 °F 91% 29.77 in 10.0 mi SW 13.8 mph 23.0 mph N/A   Overcast
8:55 PM 33.4 °F 25.9 °F 31.3 °F 92% 29.77 in 3.0 mi SW 9.2 mph 21.9 mph N/A Snow Light Snow
9:15 PM 33.3 °F 23.7 °F 32.2 °F 96% 29.77 in 2.5 mi SW 13.8 mph 24.2 mph N/A Snow Light Snow
9:16 PM 33.3 °F 24.6 °F 32.2 °F 96% 29.77 in 2.5 mi SW 11.5 mph 24.2 mph N/A Snow Light Snow
9:38 PM 33.4 °F 24.3 °F 32.4 °F 96% 29.77 in 1.0 mi SW 12.7 mph 23.0 mph N/A Snow Light Snow
9:56 PM 33.4 °F 24.8 °F 33.3 °F 99% 29.77 in 2.5 mi SW 11.5 mph 21.9 mph N/A Snow Light Snow
10:15 PM 33.8 °F 24.3 °F 33.4 °F 99% 29.76 in 5.0 mi SW 13.8 mph 25.3 mph N/A Snow Light Snow
10:16 PM 33.8 °F 23.9 °F 33.3 °F 98% 29.76 in 5.0 mi SW 15.0 mph 25.3 mph N/A Snow Light Snow
10:39 PM 33.8 °F 23.5 °F 32.5 °F 95% 29.76 in 3.0 mi SW 16.1 mph 21.9 mph N/A Snow Light Snow
10:56 PM 33.8 °F 25.3 °F 32.4 °F 94% 29.75 in 4.0 mi SW 11.5 mph 21.9 mph N/A Snow Light Snow
11:15 PM 33.8 °F 23.9 °F 32.2 °F 94% 29.75 in 5.0 mi SW 15.0 mph 25.3 mph N/A Snow Light Snow
11:16 PM 33.8 °F 23.9 °F 32.2 °F 94% 29.75 in 5.0 mi SW 15.0 mph 26.5 mph N/A Snow Light Snow
11:35 PM 33.8 °F 24.3 °F 32.5 °F 95% 29.75 in 5.0 mi SW 13.8 mph 26.5 mph N/A   Overcast
11:39 PM 33.6 °F 24.1 °F 32.5 °F 96% 29.74 in 5.0 mi SW 13.8 mph 23.0 mph N/A   Overcast
11:55 PM 33.8 °F 25.3 °F 32.2 °F 94% 29.74 in 10.0 mi SW 11.5 mph 19.6 mph N/A   Overcast